DW0226 Weather Reports


Display with metric or nautical units.
time (UTC)temp
F
wind
direction
speed
MPH
gust
MPH
rain 1hr
in
rain 24hr
in
rain mn
in
humidity
%
barometer
mb
20190222123027 42 239 0.0 0.0 0.01 0.06 0.03 35 1026.2
20190222122018 42 239 0.0 0.0 0.01 0.06 0.03 35 1026.0
20190222121029 42 239 0.0 0.0 0.00 0.05 0.02 35 1026.1
20190222120025 42 240 1.0 3.0 0.00 0.05 0.02 35 1025.8
20190222115037 42 360 0.0 0.0 0.00 0.05 0.02 35 1025.2
20190222114027 42 360 0.0 0.0 0.00 0.06 0.02 35 1024.9
20190222113019 42 360 0.0 0.0 0.00 0.06 0.02 35 1024.7
20190222112017 42 360 0.0 0.0 0.00 0.06 0.02 35 1024.6
20190222111031 42 360 0.0 0.0 0.00 0.06 0.02 35 1024.6
20190222110024 42 360 0.0 0.0 0.00 0.06 0.02 35 1024.6
20190222105019 42 360 0.0 0.0 0.00 0.06 0.02 35 1024.1
20190222104031 42 360 0.0 0.0 0.00 0.08 0.02 35 1024.1
20190222103026 42 360 0.0 0.0 0.00 0.08 0.02 35 1024.2
20190222102036 42 360 0.0 0.0 0.00 0.08 0.02 35 1023.6
20190222101032 42 360 0.0 0.0 0.00 0.08 0.02 35 1023.4
20190222100025 42 360 0.0 0.0 0.00 0.08 0.02 35 1023.4
20190222095036 42 360 0.0 0.0 0.00 0.08 0.02 35 1023.3
20190222094027 42 360 0.0 0.0 0.01 0.09 0.02 35 1023.1
20190222093025 42 360 0.0 0.0 0.01 0.09 0.02 35 1023.2
20190222092035 42 360 0.0 0.0 0.01 0.09 0.02 35 1023.1
20190222091027 42 360 0.0 0.0 0.01 0.09 0.02 35 1023.3
20190222090025 43 360 0.0 0.0 0.02 0.09 0.02 35 1023.2
20190222085036 43 360 0.0 0.0 0.02 0.09 0.02 34 1023.0
20190222084027 42 360 0.0 0.0 0.01 0.09 0.01 35 1023.0
20190222083022 42 360 0.0 0.0 0.01 0.09 0.01 35 1023.1
20190222082036 42 360 0.0 0.0 0.01 0.09 0.01 35 1022.8
20190222081029 43 202 0.0 0.0 0.01 0.09 0.01 34 1023.1
20190222080022 43 202 0.0 0.0 0.00 0.08 0.00 34 1023.3
20190222075016 43 202 0.0 0.0 0.00 0.08 0.00 34 1023.3
20190222074030 43 202 0.0 0.0 0.00 0.09 0.00 34 1023.3
20190222073025 43 202 0.0 0.0 0.00 0.09 0.00 35 1023.4
20190222072035 42 202 0.0 0.0 0.00 0.09 0.00 35 1023.1
20190222071031 42 202 0.0 0.0 0.00 0.09 0.00 35 1022.9
20190222070026 43 202 0.0 0.0 0.00 0.09 0.00 35 1022.7
20190222065017 42 202 0.0 0.0 0.00 0.09 0.00 35 1022.2
20190222064034 42 202 0.0 0.0 0.00 0.10 0.00 35 1022.1
20190222063027 42 202 0.0 0.0 0.00 0.10 0.00 35 1022.3
20190222062017 42 202 0.0 0.0 0.00 0.10 0.00 35 1022.3
20190222061031 42 202 0.0 0.0 0.00 0.10 0.00 36 1022.5
20190222060028 42 202 0.0 0.0 0.00 0.10 0.00 36 1022.4
20190222055019 42 202 0.0 0.0 0.00 0.10 0.00 36 1022.3
20190222054033 42 202 0.0 0.0 0.00 0.13 0.00 36 1021.8
20190222053029 42 209 0.0 0.0 0.00 0.13 0.00 36 1021.8
20190222052024 42 248 0.0 0.0 0.00 0.13 0.00 37 1021.3
20190222051035 41 248 0.0 0.0 0.00 0.13 0.00 37 1021.5
20190222050028 41 248 0.0 0.0 0.00 0.13 0.00 37 1021.7
20190222045025 41 248 0.0 0.0 0.00 0.13 0.13 38 1021.6
20190222044036 41 248 0.0 0.0 0.00 0.15 0.13 38 1021.7
20190222043028 41 248 0.0 0.0 0.00 0.15 0.13 38 1022.0
20190222042023 41 248 0.0 0.0 0.00 0.15 0.13 38 1022.1
20190222041035 41 248 0.0 0.0 0.00 0.15 0.13 39 1021.9
20190222040027 41 248 0.0 0.0 0.00 0.15 0.13 39 1021.7
20190222035018 41 248 0.0 0.0 0.00 0.15 0.13 40 1021.5
20190222034036 41 248 0.0 0.0 0.00 0.16 0.13 40 1021.2
20190222033028 41 248 0.0 0.0 0.00 0.16 0.13 40 1021.0
20190222032019 41 248 0.0 0.0 0.00 0.16 0.13 40 1021.2
20190222031031 41 248 0.0 0.0 0.00 0.16 0.13 40 1021.1
20190222030027 42 248 0.0 0.0 0.00 0.16 0.13 41 1021.1
20190222025020 42 248 0.0 0.0 0.00 0.16 0.13 41 1020.9
20190222024034 42 248 0.0 0.0 0.00 0.21 0.13 41 1020.8
20190222023032 42 248 0.0 0.0 0.00 0.21 0.13 42 1020.6
20190222022022 42 248 0.0 0.0 0.00 0.21 0.13 41 1020.5
20190222021034 43 248 0.0 0.0 0.00 0.21 0.13 41 1020.5
20190222020028 43 248 0.0 0.0 0.00 0.21 0.13 42 1020.0
20190222015024 43 248 0.0 0.0 0.00 0.21 0.13 41 1020.0
20190222014036 43 248 0.0 0.0 0.00 0.52 0.13 42 1020.0
20190222013029 43 248 0.0 0.0 0.00 0.52 0.13 42 1020.2
20190222012024 43 248 0.0 0.0 0.00 0.52 0.13 42 1020.1
20190222011035 43 248 0.0 0.0 0.00 0.52 0.13 42 1019.8
20190222010026 43 248 0.0 0.0 0.00 0.52 0.13 44 1019.6
20190222005037 44 248 0.0 0.0 0.00 0.52 0.13 44 1019.3
20190222004033 44 248 0.0 0.0 0.00 0.84 0.13 44 1019.5
20190222003025 44 248 0.0 0.0 0.00 0.84 0.13 44 1019.6
20190222002036 44 248 0.0 0.0 0.00 0.84 0.13 45 1019.3
20190222001031 45 248 0.0 0.0 0.00 0.84 0.13 45 1019.5
20190222000026 45 248 0.0 0.0 0.00 0.84 0.13 45 1019.1
20190221235038 46 248 0.0 0.0 0.00 0.84 0.13 45 1018.9
20190221234029 46 248 0.0 0.0 0.00 1.02 0.13 47 1018.8
20190221233030 46 248 0.0 0.0 0.00 1.02 0.13 48 1018.8
20190221232021 46 248 0.0 0.0 0.00 1.02 0.13 49 1018.7
20190221231034 46 248 0.0 0.0 0.00 1.02 0.13 50 1018.3
20190221230030 47 248 0.0 0.0 0.00 1.02 0.13 53 1017.9
20190221225020 48 248 0.0 0.0 0.00 1.02 0.13 57 1017.6
20190221224031 49 248 0.0 0.0 0.00 1.06 0.13 60 1017.7
20190221223026 51 248 0.0 0.0 0.00 1.06 0.13 62 1017.6
20190221222022 51 248 0.0 0.0 0.00 1.06 0.13 61 1017.5
20190221221032 51 248 0.0 0.0 0.00 1.06 0.13 63 1017.2
20190221220028 51 248 0.0 0.0 0.00 1.06 0.13 63 1017.0
20190221215023 51 248 0.0 0.0 0.00 1.06 0.13 62 1016.9
20190221214018 51 237 0.0 0.0 0.00 1.16 0.13 63 1016.7
20190221213033 52 232 0.0 0.0 0.00 1.16 0.13 62 1016.6
20190221212024 51 244 0.0 0.0 0.00 1.16 0.13 63 1016.5
20190221211020 52 244 0.0 0.0 0.00 1.16 0.13 62 1016.5
20190221210031 52 228 0.0 0.0 0.00 1.16 0.13 62 1016.5
20190221205023 51 236 0.0 0.0 0.00 1.16 0.13 61 1016.3
20190221204018 51 236 0.0 0.0 0.00 1.22 0.13 60 1016.2
20190221203031 50 224 0.0 0.0 0.00 1.22 0.13 60 1016.2
20190221202024 51 221 0.0 0.0 0.00 1.22 0.13 59 1016.0
20190221201037 50 186 0.0 0.0 0.00 1.22 0.13 59 1015.9
20190221200036 49 178 0.0 0.0 0.00 1.22 0.13 58 1016.0
20190221195030 49 220 0.0 0.0 0.00 1.22 0.13 57 1016.3
20190221194027 49 194 0.0 0.0 0.00 1.30 0.13 58 1016.1
20190221193022 49 254 0.0 0.0 0.00 1.30 0.13 57 1016.0
20190221192037 49 288 0.0 0.0 0.00 1.30 0.13 55 1016.1
20190221191029 49 288 0.0 0.0 0.00 1.30 0.13 54 1016.0
20190221190023 49 283 0.0 0.0 0.00 1.30 0.13 53 1016.0
20190221185020 48 235 0.0 0.0 0.00 1.30 0.13 53 1016.1
20190221184036 48 250 0.0 0.0 0.00 1.38 0.13 51 1016.1
20190221183031 48 231 0.0 0.0 0.00 1.38 0.13 50 1016.1
20190221182027 47 253 0.0 0.0 0.00 1.38 0.13 49 1016.1
20190221181019 46 253 0.0 0.0 0.00 1.38 0.13 48 1016.4
20190221180033 46 288 0.0 0.0 0.00 1.38 0.13 45 1016.4
20190221175024 46 292 0.0 0.0 0.00 1.38 0.13 44 1016.5
20190221174022 45 292 0.0 0.0 0.00 1.42 0.13 42 1016.7
20190221173037 44 288 0.0 0.0 0.00 1.42 0.13 41 1016.8
20190221172028 43 261 0.0 3.0 0.00 1.42 0.13 41 1016.9
20190221171025 43 253 1.0 5.0 0.00 1.42 0.13 41 1016.9
20190221170017 43 292 1.0 3.0 0.00 1.42 0.13 40 1016.6
20190221165030 42 292 1.0 5.0 0.00 1.42 0.13 40 1016.8
20190221164026 42 271 3.0 5.0 0.00 1.42 0.13 39 1017.2
20190221163022 42 258 2.0 5.0 0.00 1.42 0.13 39 1017.3
20190221162033 42 265 2.0 7.0 0.00 1.42 0.13 38 1017.4
20190221161026 42 258 3.0 5.0 0.00 1.42 0.13 38 1017.1
20190221160026 41 242 2.0 6.0 0.00 1.42 0.13 37 1017.2
20190221155018 40 240 1.0 5.0 0.00 1.42 0.13 36 1017.0
20190221154031 40 213 3.0 7.0 0.00 1.42 0.13 36 1017.2
20190221153023 40 218 3.0 5.0 0.00 1.42 0.13 35 1017.0
20190221152038 40 204 3.0 6.0 0.00 1.42 0.13 35 1017.3
20190221151029 40 252 2.0 5.0 0.00 1.42 0.13 35 1017.1
20190221150021 40 236 3.0 5.0 0.00 1.42 0.13 35 1016.9
20190221145019 39 284 1.0 3.0 0.00 1.42 0.13 35 1016.7
20190221144033 39 284 1.0 4.0 0.00 1.42 0.13 35 1017.1
20190221143026 38 284 2.0 4.0 0.00 1.42 0.13 35 1017.0
20190221142037 38 284 2.0 6.0 0.01 1.42 0.13 35 1016.8
20190221141033 38 279 3.0 5.0 0.01 1.42 0.13 35 1016.8
20190221140025 38 296 0.0 0.0 0.02 1.42 0.13 35 1016.7
20190221135035 38 287 0.0 0.0 0.02 1.42 0.13 35 1016.2
20190221134027 37 288 0.0 0.0 0.02 1.42 0.13 35 1016.1
20190221133023 37 262 0.0 0.0 0.02 1.42 0.13 35 1016.6
20190221132034 37 279 0.0 0.0 0.01 1.41 0.12 35 1016.2
20190221131027 37 279 0.0 0.0 0.01 1.41 0.12 35 1016.1
20190221130023 37 261 0.0 0.0 0.00 1.40 0.11 35 1015.8
20190221125037 37 268 0.0 0.0 0.01 1.40 0.11 35 1015.8
20190221124028 37 254 0.0 0.0 0.01 1.40 0.11 35 1015.6